Regional Weather Roundup
Issued by NWS

Home | Current Version | Previous Version | Text Only | Print | Product List | Glossary Off
Versions: 1 2 3 4 5 6 7 8 9 10 11 12 13 14 15 16 17 18 19 20 21 22 23 24 25 26 27 28 29 30 31 32 33 34 35 36 37 38 39 40 41 42 43 44 45 46 47 48 49 50

000
ASUS43 KFSD 222102
RWRSD

WEATHER ROUNDUP FOR SOUTH DAKOTA
NATIONAL WEATHER SERVICE SIOUX FALLS SD
400 PM CDT SAT JUL 22 2017

NOTE: "FAIR" INDICATES FEW OR NO CLOUDS BELOW 12,000 FEET WITH NO
SIGNIFICANT WEATHER AND/OR OBSTRUCTIONS TO VISIBILITY.


SDZ001>005-009-010-012>017-222200-
NORTHWEST AND NORTH CENTRAL SOUTH DAKOTA

CITY           SKY/WX    TMP DP  RH WIND       PRES   REMARKS
BUFFALO          N/A     88  40  18 NW21G26   30.01S
FAITH            N/A     93  38  14 NW13G26   30.02S
MOBRIDGE       SUNNY     91  52  26 NW17G23   29.92F
$$

SDZ012>016-024>037-041>051-057-063-072>074-222200-
SOUTHWEST AND SOUTH CENTRAL SOUTH DAKOTA

CITY           SKY/WX    TMP DP  RH WIND       PRES   REMARKS
RAPID CTY ARPT SUNNY     92  40  16 VRB7      30.06F
PIERRE         SUNNY     93  41  16 VRB7      29.95S
CUSTER         MOSUNNY   83  36  18 E14G23    30.22F
ELLSWORTH AFB  MOSUNNY   91  40  16 E5        30.07S
PHILIP         SUNNY     96  38  13 VRB5      29.98S
PINE RIDGE     MOSUNNY   89  55  31 E8        30.07F
SPEARFISH      LGT RAIN  86  37  17 VRB3      30.13S
WINNER         FAIR      96  55  25 W10       29.98F
$$

SDZ004>011-016>023-039-040-222200-
NORTHEAST SOUTH DAKOTA

CITY           SKY/WX    TMP DP  RH WIND       PRES   REMARKS
ABERDEEN       SUNNY     90  58  33 W13       29.91S
WATERTOWN      SUNNY     85  54  34 NW12      29.92S
BROOKINGS      MOSUNNY   87  55  33 NW12      29.93S
SISSETON         N/A     89  57  33 NW15      29.87S
$$

SDZ017-020-022-023-036>040-048>070-222200-
SOUTHEAST SOUTH DAKOTA

CITY           SKY/WX    TMP DP  RH WIND       PRES   REMARKS
SIOUX FALLS    PTSUNNY   88  68  51 NW10      29.93R
HURON          SUNNY     90  58  33 N7        29.92S
CHAMBERLAIN    MOSUNNY   94  57  28 E5        29.95S
MITCHELL       MOSUNNY   89  62  40 N3        29.94S
$$

ABBREVIATIONS USED IN REMARKS
   TC - TEMPERATURE IN CELSIUS
  WCI - WIND CHILL INDEX
   HX - HEAT INDEX
  VSB - VISIBILITY





USA.gov is the U.S. government's official web portal to all federal, state and local government web resources and services.